CZ-2D R/B, 36597

Orbit data source: Space-Track

CZ-2D R/B, 36597 is space debris in SSO originally from a launch on Tue, 15 Jun 2010 UTC launched from the Jiuquan Satellite Launch Center, China (JSC). Debris objects in space refer to the collection of defunct objects orbiting the Earth. Examples of debris include non-operational satellites, rocket bodies, and fragments generated from explosions, collisions, or faulty payload assembly.

Loading next visibility...
Identifier
36597, 2010-027B
Orbit
SSO
Country
Flag of CNCN / PRC
Related business
Manufacturer
BWYIC
Mission
Spacecraft
Bus & Motor
CZ-2 STAGE 2, Unknown motor
Mass
4,006 kg wet, 4,006 kg dry
Launch date (UTC)
2010-06-15 (16 years ago)
Launch vehicle
Unknown
Launch site
Jiuquan Satellite Launch Center, China (JSC)
Object type
Payload
Rocket body
Debris
Shape & HBR
Cyl, 4.0 m
Radar Cross Section
25.456 m², Large (>1 m²)

Expand to show TLE details & history
Last TLE update: 13 hours ago

TLE from 13 hours ago
0 CZ-2D R/B
1 36597U 10027B   26126.06749538  .00002462  00000-0  18455-3 0  9999
2 36597  97.9826 154.0233 0051671  63.2091 297.4406 15.02623054864550
Epoch: 2026-05-06T01:37Z
TLE epoch observation values (Epoch: 2026-05-06T01:37:11.600Z)
Latitude
0.00003°
Longitude
-94.20834°
Altitude
545.486 km
Speed
7.598 km/s
True Right ascension
10h 16m 05s
True Declination
0° 00' 00"
Sunlit
Object was in daylight at epoch
Visualization orbit readout
Latitude
Unknown
Longitude
Unknown
Altitude
Unknown
Speed
Unknown
Apparent Right ascension
Unknown
Apparent Declination
Unknown
Sunlit
N/A
Visualization observer readout
Local Sidereal Time
22:35:27
Azimuth
Unknown
Elevation
Unknown
Doppler factor
Unknown
Orbital elements
Apogee altitude
591.654 km
Perigee altitude
519.997 km
Semi-major axis
6,933.963 km
Eccentricity
0.00517
Inclination
97.9826°
RAAN
154.0233°
Arg. of periapsis
63.2091°
True anomaly
296.91355°
Mean anomaly
297.4406°
Eccentric anomaly
297.17723°
Mean motion
3.75899 °/min
Orbital period
95.77 mins
BSTAR
0.00018455
Loading maneuver chart data...
Computing Atmospheric mass density...
Loading historical data...
Loading historical data...
Loading historical data...
Loading historical data...
Loading historical data...
Loading historical data...
Loading historical data...

Documentation

Showing up to 5 results
|